Location: Berlin
(52.5170°N, 13.4000°E)
Time: 06:19:53
(UTC+02:00)

ISS - Pass Details

Date: 17 July 2018
Orbit: 402 x 408 km, 51.6° (Epoch: 23 July)

Event Time Altitude Azimuth Distance (km) Brightness Sun altitude
Exits shadow 00:08:23 13° 102° (ESE) 1,280 -1.6 -14.9°
Drops below altitude 10° 00:09:00 10° 95° (E) 1,470 -1.2 -14.9°
Sets 00:11:22 0° 79° (E) 2,335 0.0 -15.0°
